Weather History for KCPS - December, 2012

Change the Weather History Date:

Tuesday, December 4, 2012

  Actual Average Record
Temperature  
Mean Temperature 50 °F -  
Max Temperature 64 °F 49 °F 72 °F (2001)
Min Temperature 35 °F 27 °F 14 °F (2006)
Degree Days  
Heating Degree Days 14    
Moisture  
Dew Point 46 °F    
Average Humidity 81    
Maximum Humidity 94    
Minimum Humidity 57    
Precipitation  
Precipitation 0.16 in - - ()
Sea Level Pressure  
Sea Level Pressure 30.11 in    
Wind  
Wind Speed 7 mph (NNW)    
Max Wind Speed 13 mph    
Max Gust Speed -    
Visibility 9 miles    
Events Rain    
Averages and records for this station are not official NWS values.
T = Trace of Precipitation, MM = Missing Value Source: NWS Daily Summary

Daily Weather History Graph

Daily Weather History Graph

Search for Another Location

Airport or City:

Trip Planner

Search our weather history database for the weather conditions in past years. The results will help you decide how hot, cold, wet, or windy it might be!

Date:

Astronomy

Dec. 04, 2012 Rise Set
Actual Time 7:02 AM CST 4:39 PM CST
Civil Twilight 6:33 AM CST 5:08 PM CST
Nautical Twilight 6:00 AM CST 5:41 PM CST
Astronomical Twilight 5:28 AM CST 6:13 PM CST
Moon 10:24 PM CST (12/4) 10:59 AM CST (12/4)
Length of Visible Light 10h 35m
Length of Day
9h 36m
Waning Gibbous, 69% of the Moon is Illuminated
Dec 4
Waning Gibbous
Dec 6
Last Quarter
Dec 13
New
Dec 19
First Quarter
Dec 28
Full

Hourly Weather History & Observations

Time (CST) Temp. Dew Point Humidity Pressure Visibility Wind Dir Wind Speed Gust Speed Precip Events Conditions
12:53 AM 64.0 °F 55.0 °F 73% 29.94 in 10.0 mi South 4.6 mph - N/A   Clear
1:53 AM 64.0 °F 55.9 °F 75% 29.96 in 10.0 mi WSW 8.1 mph - N/A   Overcast
2:11 AM 62.6 °F 55.4 °F 77% 29.97 in 10.0 mi SW 4.6 mph - N/A   Overcast
2:41 AM 62.6 °F 55.4 °F 77% 29.98 in 10.0 mi WSW 4.6 mph - N/A   Overcast
2:53 AM 62.1 °F 55.9 °F 80% 29.98 in 10.0 mi NW 10.4 mph - N/A   Overcast
3:31 AM 57.2 °F 53.6 °F 88% 30.00 in 5.0 mi NNW 8.1 mph - 0.03 in Rain Light Rain
3:53 AM 55.9 °F 53.1 °F 90% 30.01 in 4.0 mi North 6.9 mph - 0.07 in Rain Rain
4:53 AM 55.0 °F 52.0 °F 89% 30.02 in 10.0 mi North 9.2 mph - 0.00 in Rain Light Rain
5:04 AM 55.4 °F 51.8 °F 88% 30.03 in 10.0 mi North 8.1 mph - 0.00 in   Overcast
5:20 AM 53.6 °F 51.8 °F 94% 30.04 in 9.0 mi NNW 6.9 mph - 0.00 in Rain Light Rain
5:53 AM 52.0 °F 48.0 °F 86% 30.07 in 10.0 mi NNW 12.7 mph - 0.02 in Rain Light Rain
5:55 AM 51.8 °F 48.2 °F 88% 30.07 in 10.0 mi NNW 12.7 mph - 0.00 in Rain Light Rain
6:53 AM 50.0 °F 46.9 °F 89% 30.09 in 4.0 mi North 12.7 mph - 0.05 in Rain Light Rain
7:53 AM 51.1 °F 48.0 °F 89% 30.12 in 10.0 mi NNW 5.8 mph - 0.02 in   Overcast
8:31 AM 51.8 °F 48.2 °F 88% 30.13 in 10.0 mi North 8.1 mph - N/A   Overcast
9:53 AM 52.0 °F 44.1 °F 74% 30.17 in 10.0 mi North 10.4 mph - N/A   Overcast
10:53 AM 52.0 °F 44.1 °F 74% 30.17 in 10.0 mi North 5.8 mph - N/A   Overcast
1:53 PM 55.0 °F 39.9 °F 57% 30.17 in 10.0 mi North 10.4 mph - N/A   Mostly Cloudy
2:53 PM 55.0 °F 39.9 °F 57% 30.19 in 10.0 mi NNW 6.9 mph - N/A   Clear
3:53 PM 54.0 °F 39.9 °F 59% 30.22 in 10.0 mi NNW 8.1 mph - N/A   Clear
6:53 PM 44.1 °F 37.9 °F 79% 30.26 in 10.0 mi Calm Calm - N/A   Clear
8:53 PM 39.0 °F 36.0 °F 89% 30.29 in 10.0 mi Calm Calm - N/A   Clear
9:53 PM 37.0 °F 34.0 °F 89% 30.30 in 10.0 mi Calm Calm - N/A   Clear
10:53 PM 37.0 °F 34.0 °F 89% 30.30 in 10.0 mi Calm Calm - N/A   Clear
11:53 PM 35.1 °F 33.1 °F 92% 30.31 in 10.0 mi Calm Calm - N/A   Clear